Regional Weather Roundup
Issued by NWS Green Bay, WI

Home | Current Version | Previous Version | Graphics & Text | Print | Product List | Glossary Off
Versions: 1 2 3 4 5 6 7 8 9 10 11 12 13 14 15 16 17 18 19 20 21 22 23 24 25 26 27 28 29 30 31 32 33 34 35 36 37 38 39 40 41 42 43 44 45 46 47 48 49 50

000
ASUS43 KGRB 260510
RWRGRB

NORTH-CENTRAL AND NORTHEAST WISCONSIN REGIONAL WEATHER ROUNDUP
NATIONAL WEATHER SERVICE GREEN BAY WI
1200 AM CDT SAT JUL 26 2014

WIZ005-009-010>012-018-019-260600-
NORTH CENTRAL WISCONSIN

CITY           SKY/WX    TMP DP  RH WIND       PRES   REMARKS
IRONWOOD       NOT AVBL
MANITOWISH WTR CLOUDY    64  64  97 S6        29.84S
ARBOR VITAE    CLOUDY    65  62  91 SW7       29.85S
EAGLE RIVER    CLOUDY    64  63  96 SW7       29.85R
LAND O LAKES   CLOUDY    65  63  92 SW3       29.85S
RHINELANDER    CLOUDY    64  62  93 SW8       29.87S
PHILLIPS       RAIN      65  64  94 S6        29.85S
ANTIGO         CLOUDY    63  61  95 SW7       29.87S
TOMAHAWK       CLOUDY    64  61  91 CALM      29.87S
MERRILL        CLOUDY    65  63  92 SW3       29.86S
$$

WIZ013-073-260600-
NORTHEAST WISCONSIN

CITY           SKY/WX    TMP DP  RH WIND       PRES   REMARKS
IRON MOUNTAIN  CLOUDY    65  61  87 S3        29.83R
MARINETTE      PTCLDY    64  59  82 SW6       29.84S
OCONTO         PTCLDY    64  61  90 CALM      29.84S
$$

WIZ017-030-035>037-045-260600-
CENTRAL WISCONSIN

CITY           SKY/WX    TMP DP  RH WIND       PRES   REMARKS
MEDFORD        CLOUDY    64  62  92 S6        29.88R
WAUSAU         CLOUDY    67  62  84 S8        29.86R
MOSINEE        CLOUDY    63  63 100 S9        29.88S
MARSHFIELD     CLEAR     64  62  93 S12       29.86S
WISC RAPIDS    CLEAR     65  62  90 S7        29.89R
STEVENS POINT  PTCLDY    63  60  90 SW6       29.88R
WAUPACA        CLOUDY    68  63  83 S3        29.88R
SHAWANO        MOCLDY    67  62  83 CALM      29.86S
CLINTONVILLE   CLOUDY    64  61  88 SW5       29.86R
$$

WIZ038-039-048-051-260600-
FOX VALLEY

CITY           SKY/WX    TMP DP  RH WIND       PRES   REMARKS
NWS GREEN BAY  PTCLDY    67  61  81 SW5       29.86S
APPLETON       MOCLDY    66  59  77 S12       29.88S
OSHKOSH        CLOUDY    68  62  81 S8        29.88R
FOND DU LAC    PTCLDY    64  60  87 SW5       29.89R
$$

WIZ022-050-052-260600-
EAST CENTRAL WISCONSIN

CITY           SKY/WX    TMP DP  RH WIND       PRES   REMARKS
STURGEON BAY   PTCLDY    63  57  82 S7        29.87S
MANITOWOC      PTCLDY    66  60  81 SW6       29.88S
SHEBOYGAN      PTCLDY    63  60  90 S3        29.89S
$$

LMZ563-521-522-541>543-260600-
LAKESHORE

STATION/POSITION TIME  TEMP    WIND        PRES    VSBY  WAVE
                       AIR SEA DIR/SP/G                  HT/PER
                 (UTC) (F)     (DEG/KT/KT) (MB)    (MI)  (FT/S)
SHEBOYGAN LKSHOR 0500   62     180/  9/  9 1012.0F
KEWAUNEE LKSHORE 0500   53     190/  7/  8 1011.8F
NORTHPORT PIER   0500   62     190/  4/  6 1010.5S
N MID LAKE BUOY  0500   60 55  210/ 12/ 14 1009.9F         2/ 4
CHAMBERS ISLAND  0500   67     190/  4/  9 1010.8R
MENOMINEE LKSHOR 0500   68     200/  6/  8 1011.3S
$$



USA.gov is the U.S. government's official web portal to all federal, state and local government web resources and services.